Tracking 29528 objects as of 12-Sep-2024
HD Live streaming from Space Station
objects crossing your sky now

COSMOS 1745

Track COSMOS 1745 now!
10-day predictions
COSMOS 1745 is classified as:


NORAD ID: 16727
Int'l Code: 1986-037A
Perigee: 968.5 km
Apogee: 1,014.0 km
Inclination: 83.0 °
Period: 104.8 minutes
Semi major axis: 7362 km
RCS: 2.3429 m2 (large)
Launch date: May 23, 1986
Source: Commonwealth of Independent States (former USSR) (CIS)
Launch site: PLESETSK MISSILE AND SPACE COMPLEX (PKMTR)
Your satellite tracking list
Your tracking list is empty




NASA's NSSDC Master Catalog

Two Line Element Set (TLE):
1 16727U 86037A   24255.87303278  .00000199  00000-0  19480-3 0  9997
2 16727  82.9578 220.4621 0030894 194.9961 225.2687 13.74326383920793
Source of the keplerian elements: AFSPC